Probability
0 0 0 0 0 0 0 0 0 0 0 0 0 0 0 0 0 0 0 0 0 0 0 0 0 0 0 0 0 0 0 0 0 0 0 0 0 0 0 0 0 0 0
0 0 0 0 0 0 0 0 0 0 0 0 0 0 0 0 0 0 0 0 0 0 0 0 0 0 0 0 0 0 0 0 0 0 0 0 0 0 0 0 0 0 0
0 0 0 0 0 0 0 0 0 0 0 0 0 0 0 0 0 0 0 0 0 0 0 0 0 0 0 0 0 0 0 0 0 0 0 0 0 0 0 0 0 0 0
0 0 0 0 0 0 0 0 0 0 0 0 0 0 0 0 0 0 0 0 0 0 0 0 0 0 0 0 0 0 0 0 0 0 0 0 0 0 0 0 0 0 0
0 0 0 0 0 0 0 0 0 0 0 0 0 0 0 0 0 0 0 0 0 0 0 0 0 0 0 0 0 0 0 0 0 0 0 0 0 0 0 0 0 0 0
0 0 0 0 0 0 0 0 0 0 0 0 0 0 0 0 0 0 0 0 0 0 0 0 0 0 0 0 0 0 0 0 0 0 0 0 0 0 0 0 0 0 0
0 0 0 0 0 0 0 0 0 0 0 0 0 0 0 0 0 0 0 0 0 0 0 0 0 0 0 0 0 0 0 0 0 0 0 0 0 0 0 0 0 0 0
0 0 0 0 0 0 0 0 0 0 0 0 0 0 0 0 0 0 0 0 0 0 0 0 0 0 0 0 0 0 0 0 0 0 0 0 0 0 0 0 0 0 0
0 0 0 0 0 0 0 0 0 0 0 0 0 0 0 0 0 0 0 0 0 0 0 0 0 0 0 0 0 0 0 0 0 0 0 0 0 0 0 0 0 0 0
0 0 0 0 0 0 0 0 0 0 0 0 0 0 0 0 0 0 0 0 0 0 0 0 0 0 0 0 0 0 0 0 0 0 0 0 0 0 0 0 0 0 0
0 0 0 0 0 0 0 0 0 0 0 0 0 0 0 0 0 0 0 0 0 0 0 0 0 0 0 0 0 0 0 0 0 0 0 0 0 0 0 0 0 0 0
0 0 0 0 0 0 0 0 0 0 0 0 0 0 0 0 0 0 0 0 0 0 0 0 0 0 0 0 0 0 0 0 0 0 0 0 0 0 0 0 0 0 0
0 0 0 0 0 0 0 0 0 0 0 0 0 0 0 0 0 0 0 0 0 0 0 0 0 0 0 0 0 0 0 0 0 0 0 0 0 0 0 0 0 0 0
0 0 0 0 0 0 0 0 0 0 0 0 0 0 0 0 0 0 0 0 0 0 0 0 0 0 0 0 0 0 0 0 0 0 0 0 0 0 0 0 0 0 0
0 0 0 0 0 0 0 0 0 0 0 0 0 0 0 0 0 0 0 0 0 0 0 0 0 0 0 0 0 0 0 0 0 0 0 0 0 0 0 0 0 0 0
0 0 0 0 0 0 0 0 0 0 0 0 0 0 0 0 0 0 0 0 0 0 0 0 0 0 0 0 0 0 0 0 0 0 0 0 0 0 0 0 0 0 0
0 0 0 0 0 0 0 0 0 0 0 0 0 0 0 0 0 0 0 0 0 0 0 0 0 0 0 0 0 0 0 0 0 0 0 0 0 0 0 0 0 0 0
0 0 0 0 0 0 0 0 0 0 0 0 0 0 0 0 0 0 0 0 0 0 0 0 0 0 0 0 0 0 0 0 0 0 0 0 0 0 0 0 0 0 0
0 0 0 0 0 0 0 0 0 0 0 0 0 0 0 0 0 0 0 0 0 0 0 0 0 0 0 0 0 0 0 0 0 0 0 0 0 0 0 0 0 0 0
0 0 0 0 0 0 0 0 0 0 0 0 0 0 0 0 0 0 0 0 0 0 0 0 0 0 0 0 0 0 0 0 0 0 0 0 0 0 0 0 0 0 0
0 0 0 0 0 0 0 0 0 0 0 0 0 0 0 0 0 0 0 0 0 0 0 0 0 0 0 0 0 0 0 0 0 0 0 0 0 0 0 0 0 0 0
0 0 0 0 0 0 0 0 0 0 0 0 0 0 0 0 0 0 0 0 0 0 0 0 0 0 0 0 0 0 0 0 0 0 0 0 0 0 0 0 0 0 0
0 0 0 0 0 0 0 0 0 0 0 0 0 0 0 0 0 0 0 0 0 0 0 0 0 0 0 0 0 0 0 0 0 0 0 0 0 0 0 0 0 0 0
0 0 0 0 0 0 0 0 0 0 0 0 0 0 0 0 0 0 0 0 0 0 0 0 0 0 0 0 0 0 0 0 0 0 0 0 0 0 0 0 0 0 0
0 0 0 0 0 0 0 0 0 0 0 0 0 0 0 0 0 0 0 0 0 0 0 0 0 0 0 0 0 0 0 0 0 0 0 0 0 0 0 0 0 0 0
0 0 0 0 0 0 0 0 0 0 0 0 0 0 0 0 0 0 0 0 0 0 0 0 0 0 0 0 0 0 0 0 0 0 0 0 0 0 0 0 0 0 0
Wind_Speed
4 0 0 2 3 3 4 3 3 2 2 2 2 2 2 2 2 2 3 4 4 5 6 5 5 5 6 7 7 6 6 6 3 2 4 4 5 6 6 6 5 7 8
4 3 1 2 3 4 4 4 4 3 2 2 2 1 1 1 1 1 1 1 1 2 3 5 5 5 5 6 6 6 4 4 4 4 3 4 3 5 7 5 6 8 5
9 6 4 3 4 4 4 4 4 4 3 2 2 2 2 1 1 1 1 2 2 2 2 3 4 4 5 5 6 6 7 6 4 5 5 4 5 3 3 4 5 6 5
8 6 6 5 4 4 4 5 5 5 4 3 3 2 1 0 1 1 2 3 3 3 2 3 3 3 4 5 5 5 6 6 5 4 5 6 3 3 4 2 3 4 6
10 9 7 6 5 4 5 5 6 6 5 5 4 3 2 0 1 1 2 3 3 3 3 3 3 3 3 4 4 4 5 5 5 4 4 5 4 4 5 6 3 3 4
9 8 6 6 5 4 5 5 6 6 5 5 5 4 2 1 1 2 3 3 3 2 4 4 3 3 3 4 4 4 5 4 5 4 4 4 4 4 5 7 5 4 3
10 10 10 8 6 6 5 5 6 5 4 5 4 3 2 2 1 1 2 3 3 3 4 4 4 3 4 4 4 3 4 4 4 4 4 4 5 4 4 5 5 4 2
9 11 11 9 8 7 6 5 6 5 4 4 4 3 3 1 1 2 2 2 2 3 4 4 4 4 4 4 3 2 2 2 2 2 2 2 2 2 3 3 3 4 3
9 9 8 7 7 7 6 5 6 5 4 3 3 3 3 3 2 2 2 2 2 2 4 4 4 5 5 5 4 3 3 2 2 2 2 2 2 1 1 1 2 3 4
8 8 7 7 6 5 5 5 5 4 3 3 2 3 3 3 3 3 4 4 4 4 4 5 5 6 6 6 5 4 5 5 5 4 4 4 3 3 3 2 1 1 3
8 8 7 6 6 5 5 5 4 4 3 3 3 3 3 3 4 4 4 4 4 5 5 5 6 6 7 7 6 7 7 7 7 7 7 7 6 4 4 4 3 2 1
6 7 7 6 6 5 5 4 4 3 3 3 3 3 3 4 4 4 4 4 5 5 5 5 6 7 7 7 7 7 7 8 8 7 7 7 5 6 5 4 5 4 3
7 6 6 6 6 5 5 4 4 3 3 3 4 4 4 4 4 4 4 5 5 5 6 6 7 7 7 7 7 7 8 8 8 8 8 7 7 6 5 5 5 3 3
7 7 7 6 6 5 5 4 4 3 3 4 4 4 3 4 4 4 5 5 5 5 6 6 6 6 7 7 7 7 8 8 8 8 7 7 6 5 5 5 5 4 4
8 9 8 7 6 6 5 5 4 4 4 4 4 4 3 4 4 5 5 5 6 6 6 6 6 6 6 6 6 6 7 7 7 7 7 8 9 10 7 5 4 4 4
10 9 8 9 8 8 7 6 5 4 4 4 4 4 4 4 4 5 5 5 6 6 6 7 6 7 6 11 12 8 6 6 6 6 6 6 8 11 13 13 11 9 5
11 11 11 10 9 8 7 7 6 5 5 5 4 4 4 5 5 5 5 5 5 5 6 6 6 6 8 12 12 12 7 6 5 5 4 4 6 7 5 8 11 11 13
10 10 9 8 7 7 7 6 6 6 5 5 5 5 5 5 5 5 5 5 4 4 4 5 5 4 6 10 11 11 6 5 4 4 4 4 4 4 4 4 5 5 5
8 7 8 8 8 9 8 8 7 6 6 5 5 5 5 5 5 5 4 4 4 3 3 3 4 4 4 7 8 7 3 3 4 3 3 3 3 7 7 4 3 4 4
6 7 8 8 9 9 9 8 7 7 6 6 5 5 5 5 5 5 4 3 3 3 3 2 2 2 3 4 5 6 2 2 2 2 4 6 5 7 6 3 2 2 2
6 8 9 8 9 9 9 8 7 7 6 6 5 5 5 5 5 4 3 3 3 2 1 1 1 2 2 4 3 3 2 1 1 1 2 3 8 8 7 4 1 3 1
6 7 8 7 7 9 9 8 7 6 6 6 6 5 5 4 4 4 3 3 3 2 1 1 2 2 2 3 3 3 1 2 1 1 2 3 8 8 7 4 4 5 4
6 6 7 7 7 8 8 8 7 7 7 6 6 5 5 4 4 4 4 3 3 3 2 2 2 2 2 2 4 3 3 3 0 2 4 6 7 6 4 5 6 4 2
5 6 7 7 7 8 7 7 7 8 8 7 6 6 6 5 4 4 4 4 4 4 3 3 3 2 2 2 2 2 2 3 3 2 4 5 6 4 4 4 3 2 2
5 6 7 8 8 8 8 7 8 9 8 7 7 6 6 5 5 5 5 5 5 5 5 4 3 3 3 4 5 3 3 3 3 2 1 1 1 2 2 2 2 2 2
5 6 7 7 7 8 9 9 9 10 9 8 8 6 6 5 5 4 4 8 8 9 10 8 6 5 6 6 6 6 6 7 6 1 1 2 2 3 3 3 3 3 3
Wind_Direction
255 271 93 113 106 97 107 115 121 109 120 126 152 174 207 210 210 217 224 224 227 224 221 230 226 214 221 227 222 223 230 236 217 235 267 260 237 236 235 229 227 229 226
225 206 166 111 113 112 105 101 99 92 96 118 130 146 151 187 206 234 246 260 264 250 237 236 236 224 227 232 228 218 222 226 185 194 235 283 289 253 237 227 228 235 228
209 203 185 155 129 117 113 107 95 83 73 84 94 75 62 39 28 5 342 333 318 296 276 262 254 245 233 238 234 223 225 239 218 199 209 238 252 280 275 241 237 237 230
197 194 186 169 147 128 108 100 91 78 64 67 86 108 127 190 313 323 317 323 334 331 320 301 281 266 253 248 245 232 229 234 239 214 223 235 238 250 285 265 253 242 239
192 189 182 165 138 122 108 99 89 74 62 63 77 91 94 67 319 335 336 335 335 341 344 331 318 298 278 269 261 251 237 232 237 222 209 228 238 232 252 272 265 270 251
186 173 155 139 126 114 104 98 91 75 62 64 65 78 83 47 13 355 342 335 329 336 349 342 332 315 303 293 281 267 254 245 243 238 213 205 210 212 225 254 254 251 254
172 163 158 155 146 132 117 105 98 83 67 68 64 62 64 62 38 343 334 334 336 336 339 342 334 327 317 308 301 289 278 262 252 248 239 225 228 217 220 249 265 259 253
175 170 165 156 149 139 128 117 107 97 80 75 67 54 49 49 25 358 343 337 328 324 337 343 344 340 335 332 326 319 317 317 300 292 283 261 257 241 231 238 262 278 265
170 163 153 148 145 140 135 129 120 108 94 87 81 62 46 45 34 16 11 357 346 349 3 6 8 4 2 359 359 12 3 16 18 10 8 2 354 351 317 278 250 262 279
157 152 149 146 140 132 123 117 118 117 107 90 76 73 49 45 43 44 37 28 18 21 24 27 27 25 21 18 26 28 27 42 36 32 38 36 19 19 12 355 329 277 267
163 156 147 137 131 126 125 122 119 114 104 90 79 70 54 50 52 52 42 35 33 34 38 38 40 39 35 32 42 45 43 51 47 41 47 41 32 33 24 19 18 9 337
159 150 144 141 142 143 140 134 128 118 112 104 91 79 67 63 62 56 48 47 48 45 46 47 50 49 45 42 48 53 52 55 53 47 47 39 37 39 31 30 27 18 8
154 150 153 159 160 157 152 144 135 127 120 110 99 87 76 73 69 63 58 56 57 55 53 55 56 54 52 52 54 61 62 60 56 51 50 42 43 42 35 35 30 18 17
170 170 173 172 168 162 158 152 146 139 131 121 114 102 92 88 84 76 70 66 65 63 58 58 62 64 62 60 59 64 65 63 57 51 49 44 45 47 43 38 26 21 26
188 188 185 178 171 166 164 161 155 147 137 131 125 117 111 103 97 88 79 73 68 66 61 62 61 64 68 67 66 63 66 65 61 51 44 44 47 51 55 53 36 33 34
202 195 185 179 180 177 171 165 161 154 144 140 136 132 126 117 108 100 92 82 74 67 63 60 59 59 66 75 78 77 64 63 60 50 36 36 40 43 45 49 47 47 46
203 195 192 188 183 177 168 167 161 152 149 147 142 142 137 123 113 108 98 91 82 73 66 57 57 58 68 77 79 79 73 65 57 50 39 35 34 47 38 41 42 38 43
201 196 184 175 166 160 157 153 151 152 151 149 148 147 141 129 121 111 103 96 86 79 73 60 52 51 62 77 81 82 73 65 53 44 39 33 11 36 57 51 38 28 26
196 184 170 158 153 156 154 150 153 155 156 157 154 152 145 138 131 122 114 104 98 88 78 66 53 45 35 67 88 90 75 62 39 22 22 25 4 17 46 59 38 18 1
159 149 142 141 152 156 153 155 161 164 167 163 155 148 144 142 137 133 124 111 113 113 99 71 49 33 3 37 88 105 97 69 32 10 4 6 6 5 25 83 41 354 328
135 138 144 151 158 156 156 162 168 175 164 150 147 146 145 144 139 135 129 128 128 122 107 69 354 342 334 353 26 103 127 123 58 6 345 332 345 351 355 14 318 312 17
130 141 146 149 152 158 162 169 177 164 149 149 152 153 152 154 148 148 148 150 154 161 190 243 285 286 303 322 328 350 39 138 149 304 296 303 332 345 350 351 331 359 45
145 146 148 150 159 169 171 177 174 157 155 158 162 162 161 162 159 167 173 176 183 194 214 222 241 260 261 293 312 329 340 343 233 260 298 321 339 354 351 336 347 19 25
161 157 157 167 179 183 185 180 164 163 165 172 175 172 175 178 179 185 188 191 195 203 216 221 231 243 258 263 265 277 300 306 310 305 309 326 338 344 336 341 354 349 300
173 175 183 189 190 185 191 182 170 168 176 181 185 186 189 188 193 202 206 204 208 199 202 211 211 212 239 246 240 232 226 232 247 252 205 313 320 322 318 311 304 303 310
180 187 197 201 195 189 194 188 181 179 181 188 193 194 192 193 196 202 224 236 227 231 231 218 207 220 233 251 259 268 277 285 287 279 199 262 272 277 282 288 292 288 282